Nashua, NH

5:01 AM EST on December 15, 2019 (GMT -0500)
Boire

Weather History for KASH - June, 2019

Change the Weather History Date:

Saturday, June 8, 2019

  Actual Average Record
Temperature  
Mean Temperature 67 °F -  
Max Temperature 81 °F 76 °F 95 °F (2008)
Min Temperature 53 °F 51 °F 34 °F (1951)
Cooling Degree Days 2    
Growing Degree Days 17 (Base 50)    
Moisture  
Dew Point 47 °F    
Average Humidity 57    
Maximum Humidity 100    
Minimum Humidity 21    
Precipitation  
Precipitation 0.00 in - - ()
Sea Level Pressure  
Sea Level Pressure 30.18 in    
Wind  
Wind Speed 3 mph ()    
Max Wind Speed 10 mph    
Max Gust Speed -    
Visibility 10.0 miles    
Events      
Averages and records for this station are not official NWS values.
T = Trace of Precipitation, MM = Missing Value Source: Averaged Metar Reports

Daily Weather History Graph

Daily Weather History Graph

Search for Another Location

Airport or City:

Astronomy

Jun. 08, 2019 Rise Set
Actual Time 5:07 AM EDT 8:22 PM EDT
Civil Twilight 4:33 AM EDT 8:57 PM EDT
Nautical Twilight 3:48 AM EDT 9:42 PM EDT
Astronomical Twilight 2:53 AM EDT 10:37 PM EDT
Moon 10:35 AM EDT (6/8) 12:19 AM EDT (6/8)
Length of Visible Light 16h 24m
Length of Day
15h 14m
Waxing Crescent, 32% of the Moon is Illuminated
Jun 8
Waxing Crescent
Jun 10
First Quarter
Jun 17
Full
Jun 25
Last Quarter
Jul 2
New

Hourly Weather History & Observations

Time (EDT) Temp. Dew Point Humidity Pressure Visibility Wind Dir Wind Speed Gust Speed Precip Events Conditions
12:56 AM 60.1 °F 57.0 °F 90% 30.03 in 10.0 mi WNW 4.6 mph - N/A   Clear
1:56 AM 59.0 °F 55.9 °F 90% 30.04 in 10.0 mi WNW 3.5 mph - N/A   Clear
2:56 AM 57.0 °F 55.0 °F 93% 30.06 in 10.0 mi Calm Calm - N/A   Clear
3:56 AM 55.0 °F 55.0 °F 100% 30.09 in 10.0 mi Calm Calm - N/A   Clear
4:56 AM 53.1 °F 52.0 °F 96% 30.12 in 10.0 mi Calm Calm - N/A   Clear
5:56 AM 53.1 °F 52.0 °F 96% 30.16 in 10.0 mi WNW 3.5 mph - N/A   Clear
6:56 AM 59.0 °F 54.0 °F 83% 30.18 in 10.0 mi NW 5.8 mph - N/A   Clear
7:56 AM 64.9 °F 53.1 °F 65% 30.19 in 10.0 mi North 4.6 mph - N/A   Clear
8:56 AM 68.0 °F 48.9 °F 50% 30.20 in 10.0 mi NE 5.8 mph - N/A   Clear
9:56 AM 71.1 °F 46.9 °F 42% 30.20 in 10.0 mi Variable 4.6 mph - N/A   Clear
10:56 AM 72.0 °F 42.1 °F 34% 30.21 in 10.0 mi Calm Calm - N/A   Clear
11:56 AM 73.9 °F 41.0 °F 30% 30.21 in 10.0 mi Variable 4.6 mph - N/A   Clear
12:56 PM 75.9 °F 41.0 °F 29% 30.20 in 10.0 mi NNW 8.1 mph - N/A   Clear
1:56 PM 77.0 °F 39.9 °F 26% 30.19 in 10.0 mi NW 4.6 mph - N/A   Clear
2:56 PM 79.0 °F 41.0 °F 26% 30.18 in 10.0 mi NW 3.5 mph - N/A   Clear
3:56 PM 80.1 °F 37.0 °F 21% 30.18 in 10.0 mi NNW 4.6 mph - N/A   Clear
4:56 PM 81.0 °F 39.0 °F 22% 30.18 in 10.0 mi NW 10.4 mph - N/A   Clear
5:56 PM 80.1 °F 37.9 °F 22% 30.18 in 10.0 mi NW 6.9 mph - N/A   Clear
6:56 PM 80.1 °F 37.9 °F 22% 30.20 in 10.0 mi NW 5.8 mph - N/A   Clear
7:56 PM 72.0 °F 46.0 °F 40% 30.22 in 10.0 mi Calm Calm - N/A   Clear
8:56 PM 64.9 °F 50.0 °F 58% 30.24 in 10.0 mi Calm Calm - N/A   Clear
9:56 PM 61.0 °F 52.0 °F 72% 30.26 in 10.0 mi Calm Calm - N/A   Clear
10:56 PM 57.9 °F 53.1 °F 84% 30.27 in 10.0 mi WNW 3.5 mph - N/A   Clear
11:56 PM 55.9 °F 51.1 °F 84% 30.27 in 10.0 mi WNW 4.6 mph - N/A   Clear